Regional Weather Roundup
Issued by NWS

Home | Current Version | Previous Version | Text Only | Print | Product List | Glossary Off
Versions: 1 2 3 4 5 6 7 8 9 10 11 12 13 14 15 16 17 18 19 20 21 22 23 24 25 26 27 28 29 30 31 32 33 34 35 36 37 38 39 40 41 42 43 44 45 46 47 48 49 50

000
ASUS43 KMPX 270610
RWRMN
WEATHER ROUNDUP FOR MINNESOTA
NATIONAL WEATHER SERVICE TWIN CITIES/CHANHASSEN MN
1200 AM CST MON FEB 27 2017


NOTE: "FAIR" INDICATES FEW OR NO CLOUDS BELOW 12,000 FEET WITH NO
SIGNIFICANT WEATHER AND/OR OBSTRUCTIONS TO VISIBILITY. N/A MEANS
CURRENT SKY AND/OR WEATHER CONDITIONS ARE NOT AVAILABLE.

MNZ060>063-068>070-270700-
   Twin Cities Metro

CITY           SKY/WX    TMP DP  RH WIND       PRES   REMARKS
TWIN CITIES    CLOUDY    30  16  56 S6        29.96R WCI  24
6HR MIN TEMP:  29; 6HR MAX TEMP:  32;

ST PAUL        CLOUDY    30  18  60 SE3       29.97S
CRYSTAL        CLOUDY    29  14  53 CALM      29.94S
BLAINE         CLOUDY    30  19  64 CALM      29.94F
LAKEVILLE      CLEAR     25  23  93 S5        29.95S WCI  19
EDEN PRAIRIE   PTCLDY    27  18  69 S3        29.94S
6HR MIN TEMP:  26; 6HR MAX TEMP:  32;

SOUTH ST PAUL  CLOUDY    30  19  61 S3        29.96S
LAKE ELMO      CLOUDY    30  21  69 S5        29.97R WCI  25
$$
MNZ001>005-007-008-013>017-022>024-027-028-270700-
   Northwest Minnesota

CITY           SKY/WX    TMP DP  RH WIND       PRES   REMARKS
BEMIDJI        CLEAR      7   3  84 SW5       29.88S WCI  -2
HALLOCK        CLOUDY    12   9  85 S7        29.87S WCI   2
ROSEAU         CLEAR     12   7  79 SW10      29.85S WCI  -1
WARROAD        PTCLDY    10   5  79 SW7       29.85F WCI   0
THIEF RVR FALL   N/A      6   3  87 MISG        N/A
CROOKSTON      CLEAR      9   5  85 S3        29.92S
FOSSTON        PTCLDY     9   7  92 SW7       29.90R WCI  -3
DETROIT LAKES  CLOUDY    18  14  86 S5        29.90S WCI  11
MOORHEAD       MIX PCPN  19  12  73 S8        29.92S WCI   9
PARK RAPIDS    CLOUDY    11   4  73 CALM      29.88S
MAHNOMEN       FAIR      12   9  85 SE5       29.89F WCI   5
$$
MNZ006-009>011-018-025>026-270700-
   North Central Minnesota

CITY           SKY/WX    TMP DP  RH WIND       PRES   REMARKS
BAUDETTE       CLOUDY     7   2  80 S5        29.86R WCI  -2
FLAG ISLAND    CLOUDY    12   7  79 SW13      29.82F WCI  -3
INTL FALLS     CLEAR      8   2  76 SW3       29.88R
6HR MIN TEMP:   8; 6HR MAX TEMP:  16;

WASKISH        PTCLDY     1  -2  85 CALM      29.89R
BIG FORK       CLEAR     -2  -6  84 CALM      29.89R
LONGVILLE      CLOUDY     5   1  85 CALM      29.90S
GRAND RAPIDS   CLEAR      2  -2  83 CALM      29.91S
CRANE LAKE     CLEAR     -4  -6  92 CALM      29.91S
ORR            CLEAR      5  -2  72 CALM      29.86R
COOK           CLEAR      0  -4  85 CALM      29.89S
WALKER         FAIR       8   2  77 CALM      29.90R
$$
MNZ012-019>021-037-270700-
   Northeast Minnesota

CITY           SKY/WX    TMP DP  RH WIND       PRES   REMARKS
DULUTH         CLEAR      6  -2  69 SW3       29.89S
6HR MIN TEMP:   5; 6HR MAX TEMP:  19;

ELY            CLEAR     -2  -6  84 CALM      29.88S
HIBBING        CLEAR     -3  -6  87 CALM      29.89R
EVELETH        CLEAR     -1  -5  81 CALM      29.90S
DULUTH HARBOR  CLEAR     12   3  67 CALM      29.96S
TWO HARBORS    CLEAR      7  -2  66 NW3       29.90R
SILVER BAY     CLEAR      1  -2  85 CALM      29.90R
GRAND MARAIS     N/A     16   1  51 NW6       29.94R WCI   7
G MARAIS ARPRT CLEAR      0  -9  65 W5        29.85R WCI -10
$$
MNZ029>031-032-039>041-046>048-054>057-064-270700-
   West Central Minnesota

CITY           SKY/WX    TMP DP  RH WIND       PRES   REMARKS
FERGUS FALLS   CLOUDY    18  10  73 W3        29.95F
WHEATON        CLOUDY    21  18  86 E6        29.92S WCI  14
MORRIS         CLOUDY    21  19  93 E6        29.89F WCI  14
ALEXANDRIA     CLOUDY    22  13  68 S6        29.90S WCI  14
ELBOW LAKE     CLOUDY    16  12  84 E3        29.91R
WADENA         CLOUDY    14  10  85 CALM      29.90S
GLENWOOD       LGT SNOW  21  18  86 SE3       29.91R
APPLETON       CLOUDY    27  19  74 E6        29.89F WCI  20
BENSON         CLOUDY    27  14  59 SE5       29.92S WCI  21
ORTONVILLE       N/A     23  16  74 CALM      29.88F
MADISON        CLOUDY    28  25  86 E6        29.89S WCI  22
WILLMAR        MOCLDY    27  21  80 E3        29.92S
$$
MNZ033>034-036-042>043-049>051-058-059-270700-
   Central Minnesota

CITY           SKY/WX    TMP DP  RH WIND       PRES   REMARKS
ST CLOUD       CLOUDY    25  17  72 CALM      29.93R
6HR MIN TEMP:  22; 6HR MAX TEMP:  28;

SAUK CENTRE    LGT SNOW  22  17  82 S5        29.92R WCI  15
PAYNESVILLE    CLOUDY    25  17  70 CALM      29.92S
AITKIN         CLOUDY    14   9  79 CALM      29.91R
PINE RIVER     CLOUDY    10   7  85 CALM      29.94S
BRAINERD       CLOUDY    16   9  74 CALM      29.93R
STAPLES        CLOUDY    14   9  79 CALM      29.91S
LONG PRAIRIE   CLOUDY    21  14  73 CALM      29.92R
LITTLE FALLS   CLOUDY    21  10  63 CALM      29.94R
LITCHFIELD     MOCLDY    27  19  74 CALM      29.92S
BUFFALO        CLOUDY    27  18  68 CALM      29.95R
MAPLE LAKE     CLOUDY    28  20  73 CALM      29.94S
HUTCHINSON     MOCLDY    25  22  88 E3        29.94S
$$
MNZ037-044-045-052-053-270700-
   East Central Minnesota

CITY           SKY/WX    TMP DP  RH WIND       PRES   REMARKS
PRINCETON      CLOUDY    27  16  63 CALM      29.93S
MORA           MOCLDY    21  12  68 CALM      29.95S
CAMBRIDGE      CLOUDY    28  12  50 CALM      29.93R
RUSH CITY      CLOUDY    23  12  63 CALM      29.95S
MOOSE LAKE     CLOUDY     7   1  78 CALM      29.92S
HINCKLEY       CLOUDY    18  12  79 CALM      29.93F
CLOQUET        PTCLDY     1  -4  78 CALM      29.91R
MCGREGOR       CLOUDY     9   5  85 CALM      29.92R
$$
MNZ071>073-080-081-089-090-097-098-270700-
   Southwest Minnesota

CITY           SKY/WX    TMP DP  RH WIND       PRES   REMARKS
MONTEVIDEO     CLOUDY    27  21  80 S8        29.91F WCI  18
GRANITE FALLS  CLOUDY    28  24  83 E6        29.91S WCI  22
CANBY          MOCLDY    27  24  89 CALM      29.88F
MARSHALL       CLEAR     30  24  78 SW13      29.89F WCI  20
REDWOOD FALLS  CLEAR     26  22  84 S6        29.91S WCI  19
OLIVIA         PTCLDY    28  23  80 SE6       29.90S WCI  22
PIPESTONE      CLEAR     28  21  74 SW12      29.88S WCI  18
WINDOM         CLEAR     28  25  86 S8        29.92S WCI  20
WORTHINGTON    CLEAR     27  23  85 SW15      29.92S WCI  15
JACKSON        CLEAR     25  21  86 S7        29.94R WCI  17
TRACY          CLEAR     31  26  80 SW17G23   29.89S WCI  20
SLAYTON        CLEAR     28  24  87 SW15      29.90S WCI  16
$$
MNZ065>067-074>077-082>085-091>093-270700-
   South Central Minnesota

CITY           SKY/WX    TMP DP  RH WIND       PRES   REMARKS
MANKATO          N/A     24  21  88 S7        29.96  WCI  16
NEW ULM        CLEAR     27  23  86 S8        29.93S WCI  18
ST JAMES       CLEAR     27  23  86 S10       29.95S WCI  17
FAIRMONT       CLEAR     18  15  88 S12       29.96S WCI   5
GLENCOE        PTCLDY    28  25  88 CALM      29.93S
FARIBAULT      PTCLDY    21  19  93 S6        29.96S WCI  14
OWATONNA       CLEAR     21  18  86 S5        29.96S WCI  15
WASECA         PTCLDY    19  18  93 S7        29.97S WCI  10
ALBERT LEA     CLEAR     23  19  86 SW6       29.97S WCI  16
$$
MNZ078>079-086>088-094>096-270700-
   Southeast Minnesota

CITY           SKY/WX    TMP DP  RH WIND       PRES   REMARKS
ROCHESTER      CLEAR     15  14  95 S9        29.96S WCI   3
6HR MIN TEMP:  13; 6HR MAX TEMP:  25;

RED WING       MOCLDY    28  21  74 CALM      29.98R
STANTON        CLEAR     25  21  86 S7        29.96R WCI  17
WINONA         CLEAR     28  23  80 SW3       30.02S
AUSTIN         CLEAR     16  12  86 CALM      29.98S
PRESTON        CLEAR     20  18  91 SW10      29.99S WCI   9
$$
ABBREVIATIONS USED IN REMARKS
   TC - TEMPERATURES IN CELSIUS
  WCI - WIND CHILL INDEX
   HX - HEAT INDEX
  VSB - VISIBILITY
$$



USA.gov is the U.S. government's official web portal to all federal, state and local government web resources and services.